Flag for Morocco Weather past 2 weeks in Tangier, Morocco

Now
75 °F

Passing clouds.


Feels Like: 77 °F
Forecast: N/A
Wind: 9 mph from Northwest

Location: Tanger Aerodrome

Current Time: Jul 25, 2014 at 6:19:35 PM

Latest Report: Jul 25, 2014 at 6:00 PM


Visibility: N/A

Pressure: 29.86 "Hg

Humidity: 69%

Dew point: 64 °F

Location of TangierLocation

Historic Weather in Tangier — Graph

°F

Tangier temperature yesterday

Maximum temperature yesterday: 77 °F (at 12:00 PM)
Minimum temperature yesterday: 68 °F (at 3:30 AM)
Average temperature yesterday: 72 °F

Past Weeks' High & Low Weather Summary

 TemperatureHumidityPressure
High91 °F (Jul 16, 10:30 AM)94% (Jul 11, 3:00 AM)30.12 "Hg (Jul 11, 3:00 AM)
Low61 °F (Jul 14, 5:00 AM)25% (Jul 21, 4:00 PM)29.86 "Hg (Jul 22, 4:30 PM)
Average74 °F70%29.98 "Hg
* Reported Jul 10 5:00 PM — Jul 25 5:00 PM, Tangier, Weather by CustomWeather, © 2014

Note: Actual official high and low records may vary slightly from our data, if they occured in-between our weather recording intervals... More about our weather records

Advertising

Tangier weather history for previous 24 hours

 ConditionsComfort  
Time TempWeatherWind HumidityBarometerVisibility
5:00 PM
Jul 25
77 °FPassing clouds.10 mph65%29.86 "HgN/A
4:30 PM77 °FPassing clouds.10 mph65%29.86 "HgN/A
4:00 PM77 °FPassing clouds.10 mph65%29.86 "HgN/A
3:30 PM79 °FPassing clouds.9 mph58%29.86 "HgN/A
3:00 PM79 °FPassing clouds.12 mph58%29.86 "HgN/A
2:30 PM79 °FPassing clouds.13 mph61%29.86 "HgN/A
2:00 PM77 °FPassing clouds.13 mph61%29.86 "HgN/A
1:30 PM77 °FPassing clouds.12 mph61%29.89 "HgN/A
1:00 PM77 °FPassing clouds.13 mph65%29.89 "HgN/A
12:30 PM77 °FPassing clouds.13 mph61%29.89 "HgN/A
12:00 PM77 °FPassing clouds.14 mph61%29.89 "HgN/A
11:30 AM77 °FPassing clouds.13 mph61%29.89 "HgN/A
11:00 AM75 °FPassing clouds.15 mph65%29.92 "HgN/A
10:30 AM75 °FPassing clouds.14 mph61%29.89 "HgN/A
10:00 AM75 °FPassing clouds.13 mph61%29.92 "HgN/A
9:30 AM75 °FPassing clouds.14 mph61%29.89 "HgN/A
9:00 AM73 °FPassing clouds.13 mph65%29.89 "HgN/A
8:30 AM73 °FPassing clouds.15 mph65%29.89 "HgN/A
8:00 AM72 °FSunny.12 mph69%29.89 "Hg10 mi
7:30 AM70 °FSunny.10 mph73%29.89 "Hg10 mi
7:00 AM68 °FPassing clouds.7 mph78%29.89 "HgN/A
6:30 AM66 °FScattered clouds.5 mph83%29.89 "Hg5 mi
6:00 AM66 °FScattered clouds.5 mph83%29.89 "Hg5 mi
5:30 AM66 °FScattered clouds.5 mph83%29.89 "Hg5 mi
5:00 AM66 °FPassing clouds.5 mph83%29.89 "Hg5 mi
4:30 AM66 °FPassing clouds.5 mph83%29.89 "Hg5 mi
4:00 AM68 °FPassing clouds.7 mph78%29.89 "Hg5 mi
3:30 AM68 °FPassing clouds.12 mph78%29.86 "Hg5 mi
3:00 AM68 °FPassing clouds.8 mph83%29.89 "Hg5 mi
2:30 AM68 °FPassing clouds.8 mph83%29.89 "Hg5 mi
2:00 AM68 °FPassing clouds.8 mph83%29.89 "Hg5 mi
1:30 AM68 °FPassing clouds.5 mph83%29.89 "Hg5 mi
1:00 AM68 °FPassing clouds.5 mph83%29.89 "Hg5 mi
12:30 AM68 °FPassing clouds.9 mph83%29.92 "Hg5 mi
12:00 AM70 °FPassing clouds.9 mph78%29.92 "Hg5 mi
11:30 PM
Jul 24
70 °FPassing clouds.9 mph78%29.92 "Hg5 mi
11:00 PM70 °FPassing clouds.8 mph83%29.92 "Hg5 mi
10:30 PM70 °FPassing clouds.8 mph83%29.92 "Hg5 mi
10:00 PM70 °FPassing clouds.6 mph83%29.89 "Hg5 mi
9:30 PM70 °FPartly cloudy.6 mph83%29.89 "Hg5 mi
9:00 PM70 °FPartly cloudy.5 mph83%29.89 "Hg5 mi
8:30 PM70 °FPartly cloudy.6 mph78%29.89 "HgN/A
8:00 PM72 °FPartly cloudy.5 mph73%29.89 "HgN/A
7:30 PM72 °FBroken clouds.7 mph73%29.89 "HgN/A
7:00 PM73 °FBroken clouds.9 mph74%29.86 "HgN/A
6:30 PM73 °FBroken clouds.9 mph74%29.86 "HgN/A
6:00 PM73 °FBroken clouds.9 mph74%29.86 "HgN/A
Weather by CustomWeather, © 2014

See weather overviewHow to use our weather pages